Time,TemperatureF,DewpointF,PressureIn,WindDirection,WindDirectionDegrees,WindSpeedMPH,WindSpeedGustMPH,Humidity,HourlyPrecipIn,Conditions,Clouds,dailyrainin,SoftwareType,DateUTC
2013-01-27 00:08:00,31.8,-99.9,30.33,North,1,0.0,-999.0,-999,-99.99,,,0.00,weatherlink.com 1.10,2013-01-27 05:08:00,
2013-01-27 00:23:00,31.3,29.0,30.33,NNE,21,4.0,-999.0,90,-99.99,,,0.00,weatherlink.com 1.10,2013-01-27 05:23:00,
2013-01-27 00:38:00,31.2,-99.9,30.33,North,4,0.0,-999.0,-999,-99.99,,,0.00,weatherlink.com 1.10,2013-01-27 05:38:00,
2013-01-27 00:53:00,31.0,29.0,30.33,North,353,2.0,-999.0,92,-99.99,,,0.00,weatherlink.com 1.10,2013-01-27 05:53:00,
2013-01-27 01:08:00,31.3,29.0,30.33,North,0,0.0,-999.0,92,-99.99,,,0.00,weatherlink.com 1.10,2013-01-27 06:08:00,
2013-01-27 01:23:00,31.3,29.0,30.33,North,3,0.0,-999.0,92,-99.99,,,0.00,weatherlink.com 1.10,2013-01-27 06:23:00,
2013-01-27 01:38:00,31.3,29.0,30.34,North,356,2.0,-999.0,92,-99.99,,,0.00,weatherlink.com 1.10,2013-01-27 06:38:00,
2013-01-27 01:53:00,31.6,30.0,30.35,North,10,4.0,-999.0,93,-99.99,,,0.00,weatherlink.com 1.10,2013-01-27 06:53:00,
2013-01-27 02:08:00,31.6,30.0,30.36,North,0,6.0,-999.0,93,-99.99,,,0.00,weatherlink.com 1.10,2013-01-27 07:08:00,
2013-01-27 02:23:00,31.6,30.0,30.36,North,0,0.0,-999.0,93,-99.99,,,0.00,weatherlink.com 1.10,2013-01-27 07:23:00,
2013-01-27 02:38:00,31.5,30.0,30.37,NNE,18,2.0,-999.0,93,-99.99,,,0.00,weatherlink.com 1.10,2013-01-27 07:38:00,
2013-01-27 02:53:00,31.2,29.0,30.37,North,4,4.0,-999.0,93,-99.99,,,0.00,weatherlink.com 1.10,2013-01-27 07:53:00,
2013-01-27 03:08:00,30.7,29.0,30.38,North,0,0.0,-999.0,93,-99.99,,,0.00,weatherlink.com 1.10,2013-01-27 08:08:00,
2013-01-27 03:23:00,30.4,29.0,30.38,North,6,1.0,-999.0,93,-99.99,,,0.00,weatherlink.com 1.10,2013-01-27 08:23:00,
2013-01-27 03:38:00,30.3,29.0,30.38,North,3,0.0,-999.0,94,-99.99,,,0.00,weatherlink.com 1.10,2013-01-27 08:38:00,
2013-01-27 03:53:00,30.3,29.0,30.38,North,0,0.0,-999.0,94,-99.99,,,0.00,weatherlink.com 1.10,2013-01-27 08:53:00,
2013-01-27 04:08:00,30.3,29.0,30.38,NNE,14,1.0,-999.0,94,-99.99,,,0.00,weatherlink.com 1.10,2013-01-27 09:08:00,
2013-01-27 04:23:00,30.3,29.0,30.39,North,1,2.0,-999.0,94,-99.99,,,0.00,weatherlink.com 1.10,2013-01-27 09:23:00,
2013-01-27 04:38:00,30.1,29.0,30.39,North,7,4.0,-999.0,94,-99.99,,,0.00,weatherlink.com 1.10,2013-01-27 09:38:00,
2013-01-27 04:53:00,30.0,29.0,30.39,NNE,24,0.0,-999.0,94,-99.99,,,0.00,weatherlink.com 1.10,2013-01-27 09:53:00,
2013-01-27 05:08:00,29.8,28.0,30.39,NNE,17,2.0,-999.0,94,-99.99,,,0.00,weatherlink.com 1.10,2013-01-27 10:08:00,
2013-01-27 05:23:00,29.7,28.0,30.40,North,10,4.0,-999.0,94,-99.99,,,0.00,weatherlink.com 1.10,2013-01-27 10:23:00,
2013-01-27 05:38:00,29.4,28.0,30.40,North,0,0.0,-999.0,94,-99.99,,,0.00,weatherlink.com 1.10,2013-01-27 10:38:00,
2013-01-27 05:53:00,29.3,28.0,30.41,North,0,4.0,-999.0,94,-99.99,,,0.00,weatherlink.com 1.10,2013-01-27 10:53:00,
2013-01-27 06:08:00,29.3,28.0,30.41,North,1,0.0,-999.0,94,-99.99,,,0.00,weatherlink.com 1.10,2013-01-27 11:08:00,
2013-01-27 06:23:00,29.4,28.0,30.42,North,3,1.0,-999.0,94,-99.99,,,0.00,weatherlink.com 1.10,2013-01-27 11:23:00,
2013-01-27 06:38:00,29.4,28.0,30.42,North,7,0.0,-999.0,94,-99.99,,,0.00,weatherlink.com 1.10,2013-01-27 11:38:00,
2013-01-27 06:53:00,29.5,28.0,30.42,North,3,0.0,-999.0,94,-99.99,,,0.00,weatherlink.com 1.10,2013-01-27 11:53:00,
2013-01-27 07:08:00,29.7,28.0,30.42,North,4,0.0,-999.0,94,-99.99,,,0.00,weatherlink.com 1.10,2013-01-27 12:08:00,
2013-01-27 07:23:00,29.5,28.0,30.43,North,0,0.0,-999.0,95,-99.99,,,0.00,weatherlink.com 1.10,2013-01-27 12:23:00,
2013-01-27 07:38:00,29.8,29.0,30.44,North,1,0.0,-999.0,95,-99.99,,,0.00,weatherlink.com 1.10,2013-01-27 12:38:00,
2013-01-27 07:54:00,30.6,29.0,30.44,North,3,0.0,-999.0,95,-99.99,,,0.00,weatherlink.com 1.10,2013-01-27 12:54:00,
2013-01-27 08:09:00,31.5,30.0,30.44,North,0,0.0,-999.0,95,-99.99,,,0.00,weatherlink.com 1.10,2013-01-27 13:09:00,
2013-01-27 08:23:00,32.1,31.0,30.46,North,0,0.0,-999.0,95,-99.99,,,0.00,weatherlink.com 1.10,2013-01-27 13:23:00,
2013-01-27 08:38:00,33.2,32.0,30.47,NE,42,2.0,-999.0,94,-99.99,,,0.00,weatherlink.com 1.10,2013-01-27 13:38:00,
2013-01-27 08:54:00,34.0,32.0,30.47,North,359,0.0,-999.0,92,-99.99,,,0.00,weatherlink.com 1.10,2013-01-27 13:54:00,
2013-01-27 09:09:00,34.9,31.0,30.48,NNE,23,2.0,-999.0,87,-99.99,,,0.00,weatherlink.com 1.10,2013-01-27 14:09:00,
2013-01-27 09:23:00,36.0,30.0,30.49,North,0,4.0,-999.0,78,-99.99,,,0.00,weatherlink.com 1.10,2013-01-27 14:23:00,
2013-01-27 09:39:00,37.5,28.0,30.49,ENE,76,10.0,-999.0,69,-99.99,,,0.00,weatherlink.com 1.10,2013-01-27 14:39:00,
2013-01-27 09:53:00,38.0,26.0,30.50,NE,49,11.0,-999.0,63,-99.99,,,0.00,weatherlink.com 1.10,2013-01-27 14:53:00,
2013-01-27 10:09:00,38.5,25.0,30.51,North,356,8.0,-999.0,58,-99.99,,,0.00,weatherlink.com 1.10,2013-01-27 15:09:00,
2013-01-27 10:23:00,38.6,24.0,30.51,NNE,30,10.0,-999.0,57,-99.99,,,0.00,weatherlink.com 1.10,2013-01-27 15:23:00,
2013-01-27 10:38:00,39.2,25.0,30.51,NNE,32,6.0,-999.0,56,-99.99,,,0.00,weatherlink.com 1.10,2013-01-27 15:38:00,
2013-01-27 10:54:00,39.3,24.0,30.51,North,1,8.0,-999.0,55,-99.99,,,0.00,weatherlink.com 1.10,2013-01-27 15:54:00,
2013-01-27 11:08:00,39.6,24.0,30.51,ENE,66,8.0,-999.0,54,-99.99,,,0.00,weatherlink.com 1.10,2013-01-27 16:08:00,
2013-01-27 11:23:00,39.5,23.0,30.52,NNE,27,13.0,-999.0,51,-99.99,,,0.00,weatherlink.com 1.10,2013-01-27 16:23:00,
2013-01-27 11:38:00,40.5,23.0,30.51,NE,49,11.0,-999.0,51,-99.99,,,0.00,weatherlink.com 1.10,2013-01-27 16:38:00,
2013-01-27 11:54:00,40.6,23.0,30.50,NNE,20,9.0,-999.0,50,-99.99,,,0.00,weatherlink.com 1.10,2013-01-27 16:54:00,
2013-01-27 12:09:00,40.6,22.0,30.48,North,11,9.0,-999.0,48,-99.99,,,0.00,weatherlink.com 1.10,2013-01-27 17:09:00,
2013-01-27 12:23:00,41.2,23.0,30.48,NE,37,1.0,-999.0,49,-99.99,,,0.00,weatherlink.com 1.10,2013-01-27 17:23:00,
2013-01-27 12:38:00,41.3,22.0,30.48,NE,35,2.0,-999.0,47,-99.99,,,0.00,weatherlink.com 1.10,2013-01-27 17:38:00,
2013-01-27 12:53:00,41.6,23.0,30.47,NE,44,1.0,-999.0,48,-99.99,,,0.00,weatherlink.com 1.10,2013-01-27 17:53:00,
2013-01-27 13:08:00,41.9,24.0,30.47,ENE,78,4.0,-999.0,49,-99.99,,,0.00,weatherlink.com 1.10,2013-01-27 18:08:00,
2013-01-27 13:23:00,42.5,25.0,30.47,NE,56,8.0,-999.0,50,-99.99,,,0.00,weatherlink.com 1.10,2013-01-27 18:23:00,
2013-01-27 13:39:00,42.6,25.0,30.47,NNE,32,6.0,-999.0,50,-99.99,,,0.00,weatherlink.com 1.10,2013-01-27 18:39:00,
2013-01-27 13:54:00,42.9,25.0,30.47,NE,51,6.0,-999.0,50,-99.99,,,0.00,weatherlink.com 1.10,2013-01-27 18:54:00,
2013-01-27 14:08:00,42.2,25.0,30.46,North,357,7.0,-999.0,50,-99.99,,,0.00,weatherlink.com 1.10,2013-01-27 19:08:00,
2013-01-27 14:23:00,42.8,26.0,30.45,NE,37,0.0,-999.0,52,-99.99,,,0.00,weatherlink.com 1.10,2013-01-27 19:23:00,
2013-01-27 14:38:00,42.3,26.0,30.45,NE,49,0.0,-999.0,53,-99.99,,,0.00,weatherlink.com 1.10,2013-01-27 19:38:00,
2013-01-27 14:54:00,42.3,27.0,30.45,NE,42,1.0,-999.0,54,-99.99,,,0.00,weatherlink.com 1.10,2013-01-27 19:54:00,
2013-01-27 15:08:00,42.2,26.0,30.46,ENE,68,0.0,-999.0,54,-99.99,,,0.00,weatherlink.com 1.10,2013-01-27 20:08:00,
2013-01-27 15:23:00,41.6,27.0,30.47,North,354,0.0,-999.0,56,-99.99,,,0.00,weatherlink.com 1.10,2013-01-27 20:23:00,
2013-01-27 15:38:00,41.6,27.0,30.47,NE,37,1.0,-999.0,57,-99.99,,,0.00,weatherlink.com 1.10,2013-01-27 20:38:00,
2013-01-27 15:54:00,41.6,27.0,30.47,North,0,0.0,-999.0,57,-99.99,,,0.00,weatherlink.com 1.10,2013-01-27 20:54:00,
2013-01-27 16:09:00,41.8,27.0,30.48,NNE,30,0.0,-999.0,56,-99.99,,,0.00,weatherlink.com 1.10,2013-01-27 21:09:00,
2013-01-27 16:23:00,41.2,27.0,30.48,NNE,28,0.0,-999.0,58,-99.99,,,0.00,weatherlink.com 1.10,2013-01-27 21:23:00,
2013-01-27 16:38:00,41.1,26.0,30.48,NNE,24,0.0,-999.0,56,-99.99,,,0.00,weatherlink.com 1.10,2013-01-27 21:38:00,
2013-01-27 16:53:00,40.3,26.0,30.48,NNE,28,0.0,-999.0,58,-99.99,,,0.00,weatherlink.com 1.10,2013-01-27 21:53:00,
2013-01-27 17:08:00,39.9,27.0,30.49,North,11,0.0,-999.0,60,-99.99,,,0.00,weatherlink.com 1.10,2013-01-27 22:08:00,
2013-01-27 17:24:00,39.6,27.0,30.49,North,1,0.0,-999.0,60,-99.99,,,0.00,weatherlink.com 1.10,2013-01-27 22:24:00,
2013-01-27 17:38:00,38.9,27.0,30.50,North,4,0.0,-999.0,63,-99.99,,,0.00,weatherlink.com 1.10,2013-01-27 22:38:00,
2013-01-27 17:53:00,38.3,27.0,30.50,NE,40,0.0,-999.0,63,-99.99,,,0.00,weatherlink.com 1.10,2013-01-27 22:53:00,
2013-01-27 18:09:00,37.9,27.0,30.50,NE,40,0.0,-999.0,64,-99.99,,,0.00,weatherlink.com 1.10,2013-01-27 23:09:00,
2013-01-27 18:23:00,37.6,26.0,30.49,NE,44,0.0,-999.0,64,-99.99,,,0.00,weatherlink.com 1.10,2013-01-27 23:23:00,
2013-01-27 18:38:00,37.3,27.0,30.50,NE,41,0.0,-999.0,66,-99.99,,,0.00,weatherlink.com 1.10,2013-01-27 23:38:00,
2013-01-27 18:53:00,36.8,26.0,30.50,NNE,24,0.0,-999.0,66,-99.99,,,0.00,weatherlink.com 1.10,2013-01-27 23:53:00,
2013-01-27 19:09:00,36.5,27.0,30.50,NNE,24,0.0,-999.0,68,-99.99,,,0.00,weatherlink.com 1.10,2013-01-28 00:09:00,
2013-01-27 19:24:00,36.2,27.0,30.50,NNE,24,0.0,-999.0,69,-99.99,,,0.00,weatherlink.com 1.10,2013-01-28 00:24:00,
2013-01-27 19:38:00,35.9,27.0,30.50,NE,35,0.0,-999.0,70,-99.99,,,0.00,weatherlink.com 1.10,2013-01-28 00:38:00,
2013-01-27 19:53:00,35.9,27.0,30.50,NNE,23,0.0,-999.0,70,-99.99,,,0.00,weatherlink.com 1.10,2013-01-28 00:53:00,
2013-01-27 20:09:00,35.9,27.0,30.49,NNE,27,0.0,-999.0,71,-99.99,,,0.00,weatherlink.com 1.10,2013-01-28 01:09:00,
2013-01-27 20:23:00,35.8,27.0,30.48,NNE,24,0.0,-999.0,71,-99.99,,,0.00,weatherlink.com 1.10,2013-01-28 01:23:00,
2013-01-27 20:38:00,35.6,27.0,30.48,NE,35,0.0,-999.0,71,-99.99,,,0.00,weatherlink.com 1.10,2013-01-28 01:38:00,
2013-01-27 20:54:00,35.3,27.0,30.49,NE,34,0.0,-999.0,72,-99.99,,,0.00,weatherlink.com 1.10,2013-01-28 01:54:00,
2013-01-27 21:08:00,35.0,27.0,30.49,NE,35,0.0,-999.0,73,-99.99,,,0.00,weatherlink.com 1.10,2013-01-28 02:08:00,
2013-01-27 21:24:00,34.9,27.0,30.48,NE,35,0.0,-999.0,73,-99.99,,,0.00,weatherlink.com 1.10,2013-01-28 02:24:00,
2013-01-27 21:38:00,34.6,27.0,30.49,NNE,32,0.0,-999.0,74,-99.99,,,0.00,weatherlink.com 1.10,2013-01-28 02:38:00,
2013-01-27 21:54:00,34.3,27.0,30.49,NNE,32,0.0,-999.0,75,-99.99,,,0.00,weatherlink.com 1.10,2013-01-28 02:54:00,
2013-01-27 22:09:00,34.1,27.0,30.48,NNE,32,0.0,-999.0,75,-99.99,,,0.00,weatherlink.com 1.10,2013-01-28 03:09:00,
2013-01-27 22:23:00,34.3,27.0,30.47,NE,47,0.0,-999.0,76,-99.99,,,0.00,weatherlink.com 1.10,2013-01-28 03:23:00,
2013-01-27 22:39:00,34.4,28.0,30.47,NNE,23,0.0,-999.0,76,-99.99,,,0.00,weatherlink.com 1.10,2013-01-28 03:39:00,
2013-01-27 22:53:00,34.7,28.0,30.47,NE,34,4.0,-999.0,76,-99.99,,,0.00,weatherlink.com 1.10,2013-01-28 03:53:00,
2013-01-27 23:08:00,34.7,28.0,30.47,NE,34,0.0,-999.0,77,-99.99,,,0.00,weatherlink.com 1.10,2013-01-28 04:08:00,
2013-01-27 23:24:00,34.7,28.0,30.47,NE,49,1.0,-999.0,77,-99.99,,,0.00,weatherlink.com 1.10,2013-01-28 04:24:00,
2013-01-27 23:39:00,34.6,28.0,30.47,NE,37,0.0,-999.0,77,-99.99,,,0.00,weatherlink.com 1.10,2013-01-28 04:39:00,
2013-01-27 23:54:00,34.6,28.0,30.47,NE,37,0.0,-999.0,77,-99.99,,,0.00,weatherlink.com 1.10,2013-01-28 04:54:00,